DLH429 HECA-EDDK

Flight info

Callsign DLH429
Flight time N/A
Altitude 36000
Route CVO L617 TANSA UL613 KOR DCT TUMBO DCT RODON DCT VAKSU DCT MONFA DCT BAKOR DCT SOTOV DCT KPT L608 KOVAN T844 ASKIK T840 GULKO GULKO1C
Aircraft A343/H-SDE2E3FGHIJ4J5M1RWXY/LB1D1

Departure

Time 2026-05-06 15:03
Airport Cairo International Airport (HECA)

Arrival

Time N/A
Airport Cologne Bonn Airport (EDDK)
Time Latitude Longitude Altitude Speed Heading
2026-05-06 14:40 30.11051 31.40315 378 ft 0 kts 17°
2026-05-06 14:48 30.11050 31.40315 378 ft 2 kts 17°
2026-05-06 14:49 30.11030 31.40308 378 ft 1 kts 17°
2026-05-06 14:49 30.11029 31.40308 378 ft 0 kts 17°
2026-05-06 14:49 30.11051 31.40315 378 ft 0 kts 17°
2026-05-06 14:52 30.11050 31.40315 378 ft 2 kts 17°
2026-05-06 14:52 30.11026 31.40307 378 ft 4 kts 17°
2026-05-06 14:52 30.11004 31.40299 378 ft 4 kts 24°
2026-05-06 14:52 30.10984 31.40282 378 ft 4 kts 63°
2026-05-06 14:53 30.10979 31.40253 378 ft 4 kts 101°
2026-05-06 14:53 30.10987 31.40223 378 ft 4 kts 108°
2026-05-06 14:53 30.10989 31.40217 378 ft 0 kts 107°
2026-05-06 14:56 30.10986 31.40226 378 ft 2 kts 107°
2026-05-06 14:56 30.10977 31.40261 378 ft 6 kts 107°
2026-05-06 14:57 30.10965 31.40305 378 ft 0 kts 107°
2026-05-06 14:57 30.10957 31.40337 378 ft 8 kts 107°
2026-05-06 14:57 30.10935 31.40416 378 ft 12 kts 107°
2026-05-06 14:57 30.10886 31.40471 378 ft 8 kts 182°
2026-05-06 14:58 30.10842 31.40433 378 ft 9 kts 227°
2026-05-06 14:58 30.10793 31.40367 378 ft 13 kts 229°
2026-05-06 14:58 30.10728 31.40281 378 ft 15 kts 229°
2026-05-06 14:58 30.10658 31.40189 378 ft 16 kts 229°
2026-05-06 14:59 30.10586 31.40093 378 ft 16 kts 229°
2026-05-06 14:59 30.10511 31.39994 378 ft 17 kts 229°
2026-05-06 14:59 30.10434 31.39893 378 ft 17 kts 229°
2026-05-06 14:59 30.10357 31.39791 378 ft 15 kts 229°
2026-05-06 15:00 30.10290 31.39703 378 ft 14 kts 228°
2026-05-06 15:00 30.10222 31.39615 378 ft 14 kts 228°
2026-05-06 15:00 30.10154 31.39576 378 ft 10 kts 167°
2026-05-06 15:00 30.10099 31.39622 378 ft 10 kts 139°
2026-05-06 15:01 30.10042 31.39678 378 ft 11 kts 140°
2026-05-06 15:01 30.10001 31.39753 378 ft 11 kts 103°
2026-05-06 15:01 30.10013 31.39846 376 ft 14 kts 77°
2026-05-06 15:01 30.10061 31.39950 375 ft 18 kts 49°
2026-05-06 15:02 30.10263 31.40218 378 ft 73 kts 49°
2026-05-06 15:02 30.10709 31.40811 376 ft 122 kts 49°
2026-05-06 15:02 30.11359 31.41674 380 ft 161 kts 48°
2026-05-06 15:02 30.12146 31.42725 646 ft 178 kts 46°
2026-05-06 15:03 30.13047 31.43689 1202 ft 176 kts 25°
2026-05-06 15:03 30.14225 31.43811 1826 ft 177 kts 343°
2026-05-06 15:03 30.15393 31.43193 2212 ft 198 kts 329°
2026-05-06 15:03 30.16601 31.42203 2560 ft 229 kts 323°
2026-05-06 15:04 30.17865 31.40949 3169 ft 247 kts 319°
2026-05-06 15:04 30.19109 31.39542 4062 ft 252 kts 316°
2026-05-06 15:04 30.20326 31.38071 5019 ft 254 kts 315°
2026-05-06 15:04 30.21546 31.36564 5916 ft 259 kts 315°
2026-05-06 15:05 30.22787 31.35031 6829 ft 263 kts 314°
2026-05-06 15:05 30.24055 31.33479 7641 ft 268 kts 314°
2026-05-06 15:05 30.25331 31.31931 8453 ft 271 kts 314°
2026-05-06 15:05 30.26645 31.30348 9324 ft 274 kts 313°
2026-05-06 15:06 30.27978 31.28747 10128 ft 278 kts 313°
2026-05-06 15:06 30.29353 31.27097 10593 ft 294 kts 313°
2026-05-06 15:06 30.30817 31.25340 10917 ft 312 kts 313°
2026-05-06 15:06 30.32366 31.23482 11204 ft 330 kts 313°
2026-05-06 15:07 30.33999 31.21522 11558 ft 344 kts 313°
2026-05-06 15:07 30.35680 31.19505 12130 ft 351 kts 313°
2026-05-06 15:07 30.37389 31.17455 12809 ft 355 kts 313°
2026-05-06 15:07 30.39088 31.15416 13488 ft 358 kts 312°
2026-05-06 15:08 30.40829 31.13325 14133 ft 362 kts 312°
2026-05-06 15:08 30.42584 31.11213 14731 ft 366 kts 312°
2026-05-06 15:08 30.44357 31.09078 15346 ft 370 kts 312°
2026-05-06 15:08 30.46147 31.06922 15982 ft 373 kts 312°
2026-05-06 15:09 30.47951 31.04747 16659 ft 375 kts 311°
2026-05-06 15:09 30.49768 31.02556 17289 ft 379 kts 311°
2026-05-06 15:09 30.51601 31.00344 17919 ft 382 kts 311°
2026-05-06 15:09 30.53427 30.98139 18510 ft 386 kts 311°
2026-05-06 15:10 30.55293 30.95884 19057 ft 389 kts 311°
2026-05-06 15:10 30.57168 30.93617 19674 ft 390 kts 311°
2026-05-06 15:10 30.59051 30.91341 20264 ft 392 kts 311°
2026-05-06 15:10 30.60943 30.89050 20795 ft 395 kts 311°
2026-05-06 15:11 30.62851 30.86740 21343 ft 397 kts 311°
2026-05-06 15:11 30.64770 30.84414 21900 ft 400 kts 311°
2026-05-06 15:11 30.66697 30.82078 22444 ft 402 kts 311°
2026-05-06 15:11 30.68637 30.79724 22952 ft 405 kts 311°
2026-05-06 15:12 30.70591 30.77351 23485 ft 407 kts 311°
2026-05-06 15:12 30.72553 30.74968 23922 ft 410 kts 311°
2026-05-06 15:12 30.74502 30.72598 24336 ft 412 kts 311°
2026-05-06 15:12 30.76487 30.70185 24749 ft 414 kts 311°
2026-05-06 15:13 30.78483 30.67756 25174 ft 416 kts 311°
2026-05-06 15:13 30.80486 30.65315 25567 ft 418 kts 311°
2026-05-06 15:13 30.82499 30.62863 25984 ft 420 kts 311°
2026-05-06 15:13 30.84516 30.60403 26403 ft 421 kts 311°
2026-05-06 15:14 30.86542 30.57931 26785 ft 423 kts 311°
2026-05-06 15:14 30.88573 30.55452 27150 ft 425 kts 311°
2026-05-06 15:14 30.90596 30.52979 27523 ft 427 kts 311°
2026-05-06 15:14 30.92650 30.50467 27866 ft 429 kts 311°
2026-05-06 15:15 30.94714 30.47943 28218 ft 431 kts 311°
2026-05-06 15:15 30.96786 30.45405 28558 ft 433 kts 311°
2026-05-06 15:15 30.98867 30.42855 28897 ft 435 kts 311°
2026-05-06 15:15 31.00959 30.40291 29221 ft 437 kts 310°
2026-05-06 15:16 31.03057 30.37717 29537 ft 439 kts 311°
2026-05-06 15:16 31.05166 30.35128 29841 ft 441 kts 310°
2026-05-06 15:16 31.07151 30.32465 30141 ft 441 kts 305°
2026-05-06 15:16 31.08856 30.29496 30392 ft 441 kts 297°
2026-05-06 15:17 31.10208 30.26294 30671 ft 441 kts 292°
2026-05-06 15:17 31.11317 30.22961 30985 ft 440 kts 288°
2026-05-06 15:17 31.12276 30.19586 31388 ft 437 kts 287°
2026-05-06 15:17 31.13165 30.16204 31810 ft 435 kts 286°
2026-05-06 15:18 31.14031 30.12835 32199 ft 433 kts 286°
2026-05-06 15:18 31.14886 30.09526 32545 ft 432 kts 286°
2026-05-06 15:18 31.15766 30.06172 32821 ft 432 kts 287°
2026-05-06 15:18 31.16657 30.02829 33177 ft 431 kts 287°
2026-05-06 15:19 31.17558 29.99501 33544 ft 429 kts 287°
2026-05-06 15:19 31.18645 29.96264 33898 ft 428 kts 294°
2026-05-06 15:19 31.20064 29.93213 34220 ft 428 kts 301°
2026-05-06 15:19 31.21719 29.90322 34490 ft 428 kts 302°
2026-05-06 15:20 31.23419 29.87517 34721 ft 428 kts 303°
2026-05-06 15:20 31.25173 29.84706 34957 ft 428 kts 304°
2026-05-06 15:20 31.26940 29.81906 35199 ft 428 kts 304°
2026-05-06 15:20 31.28712 29.79099 35367 ft 430 kts 304°
2026-05-06 15:21 31.30490 29.76273 35523 ft 432 kts 304°
2026-05-06 15:21 31.32262 29.73445 35772 ft 431 kts 304°
2026-05-06 15:21 31.34028 29.70617 36022 ft 430 kts 304°
2026-05-06 15:22 31.37527 29.64993 36104 ft 428 kts 303°
2026-05-06 15:22 31.41015 29.59372 36104 ft 426 kts 303°
2026-05-06 15:23 31.44494 29.53757 36109 ft 426 kts 303°
2026-05-06 15:23 31.47975 29.48131 36108 ft 427 kts 303°
2026-05-06 15:24 31.51435 29.42534 36105 ft 427 kts 303°
2026-05-06 15:24 31.54915 29.36895 36105 ft 427 kts 303°
2026-05-06 15:25 31.58394 29.31250 36107 ft 427 kts 303°
2026-05-06 15:25 31.61867 29.25601 36108 ft 427 kts 303°
2026-05-06 15:26 31.65308 29.19981 36108 ft 427 kts 303°
2026-05-06 15:26 31.68768 29.14320 36117 ft 427 kts 303°
2026-05-06 15:27 31.72296 29.08688 36107 ft 430 kts 308°
2026-05-06 15:27 31.76630 29.03814 36108 ft 433 kts 316°
2026-05-06 15:28 31.81234 28.99314 36110 ft 434 kts 317°
2026-05-06 15:28 31.85921 28.94840 36110 ft 434 kts 318°
2026-05-06 15:29 31.90599 28.90358 36108 ft 434 kts 317°
2026-05-06 15:29 31.95263 28.85860 36108 ft 434 kts 317°
2026-05-06 15:30 31.99893 28.81380 36107 ft 433 kts 317°
2026-05-06 15:30 32.04552 28.76863 36113 ft 434 kts 317°
2026-05-06 15:31 32.09215 28.72339 36106 ft 434 kts 317°
2026-05-06 15:31 32.13878 28.67809 36108 ft 434 kts 317°
2026-05-06 15:32 32.20845 28.61030 36110 ft 435 kts 317°
2026-05-06 15:32 32.25508 28.56484 36108 ft 435 kts 317°
2026-05-06 15:33 32.30168 28.51935 36110 ft 435 kts 317°
2026-05-06 15:33 32.34796 28.47411 36111 ft 435 kts 317°
2026-05-06 15:34 32.39456 28.42850 36108 ft 435 kts 317°
2026-05-06 15:34 32.44114 28.38284 36108 ft 435 kts 317°
2026-05-06 15:35 32.48771 28.33713 36105 ft 435 kts 317°
2026-05-06 15:35 32.53401 28.29162 36108 ft 435 kts 317°
2026-05-06 15:36 32.58061 28.24576 36105 ft 435 kts 317°
2026-05-06 15:36 32.62718 28.19985 36105 ft 435 kts 317°
2026-05-06 15:37 32.67376 28.15388 36105 ft 435 kts 317°
2026-05-06 15:37 32.71999 28.10818 36102 ft 435 kts 317°
2026-05-06 15:38 32.76652 28.06212 36106 ft 435 kts 317°
2026-05-06 15:38 32.81305 28.01600 36102 ft 435 kts 317°
2026-05-06 15:39 32.85951 27.96989 36106 ft 435 kts 317°
2026-05-06 15:39 32.90567 27.92400 36106 ft 435 kts 317°
2026-05-06 15:40 32.95211 27.87778 36119 ft 435 kts 317°
2026-05-06 15:40 32.99855 27.83149 36104 ft 435 kts 317°
2026-05-06 15:41 33.04494 27.78518 36102 ft 435 kts 317°
2026-05-06 15:41 33.09098 27.73915 36102 ft 435 kts 317°
2026-05-06 15:42 33.13733 27.69275 36102 ft 435 kts 317°
2026-05-06 15:42 33.18367 27.64630 36102 ft 435 kts 317°
2026-05-06 15:43 33.22998 27.59980 36102 ft 435 kts 317°
2026-05-06 15:43 33.27597 27.55357 36108 ft 435 kts 317°
2026-05-06 15:44 33.32221 27.50702 36102 ft 434 kts 317°
2026-05-06 15:44 33.36841 27.46044 36103 ft 434 kts 317°
2026-05-06 15:45 33.41457 27.41383 36102 ft 434 kts 317°
2026-05-06 15:45 33.46040 27.36748 36102 ft 434 kts 317°
2026-05-06 15:46 33.50651 27.32079 36102 ft 434 kts 317°
2026-05-06 15:46 33.55261 27.27404 36102 ft 434 kts 317°
2026-05-06 15:47 33.59092 27.23513 36107 ft 434 kts 317°
2026-05-06 15:47 33.64435 27.18081 36106 ft 433 kts 317°
2026-05-06 15:48 33.69031 27.13400 36098 ft 433 kts 317°
2026-05-06 15:48 33.72851 27.09504 36107 ft 434 kts 317°
2026-05-06 15:49 33.77451 27.04806 36106 ft 434 kts 317°
2026-05-06 15:49 33.82793 26.99343 36105 ft 434 kts 317°
2026-05-06 15:50 33.87385 26.94638 36106 ft 434 kts 317°
2026-05-06 15:50 33.91203 26.90722 36102 ft 433 kts 317°
2026-05-06 15:51 33.95783 26.86018 36099 ft 433 kts 317°
2026-05-06 15:51 34.01111 26.80546 36102 ft 433 kts 318°
2026-05-06 15:52 34.05085 26.76775 36101 ft 434 kts 321°
2026-05-06 15:52 34.09882 26.72427 36103 ft 434 kts 321°
2026-05-06 15:53 34.14697 26.68028 36104 ft 434 kts 320°
2026-05-06 15:53 34.19489 26.63588 36117 ft 434 kts 320°
2026-05-06 15:54 34.24262 26.59137 36105 ft 433 kts 320°
2026-05-06 15:54 34.28994 26.54716 36100 ft 433 kts 320°
2026-05-06 15:55 34.33761 26.50258 36102 ft 433 kts 320°
2026-05-06 15:55 34.38522 26.45801 36101 ft 433 kts 320°
2026-05-06 15:56 34.43286 26.41334 36100 ft 433 kts 320°
2026-05-06 15:56 34.48016 26.36893 36102 ft 433 kts 320°
2026-05-06 15:57 34.52773 26.32420 36102 ft 433 kts 320°
2026-05-06 15:57 34.57528 26.27941 36100 ft 432 kts 320°
2026-05-06 15:58 34.62248 26.23490 36101 ft 433 kts 320°
2026-05-06 15:58 34.67001 26.19000 36100 ft 433 kts 320°
2026-05-06 15:59 34.71755 26.14503 36099 ft 433 kts 320°
2026-05-06 15:59 34.76508 26.10000 36100 ft 433 kts 320°
2026-05-06 16:00 34.81228 26.05522 36104 ft 433 kts 320°
2026-05-06 16:00 34.85969 26.01017 36103 ft 432 kts 320°
2026-05-06 16:01 34.90705 25.96511 36099 ft 432 kts 320°
2026-05-06 16:01 34.95442 25.91995 36099 ft 433 kts 320°
2026-05-06 16:02 35.00155 25.87497 36100 ft 433 kts 320°
2026-05-06 16:02 35.04900 25.82961 36102 ft 433 kts 320°
2026-05-06 16:03 35.09640 25.78422 36104 ft 433 kts 320°
2026-05-06 16:03 35.14366 25.73881 36105 ft 432 kts 320°
2026-05-06 16:04 35.19041 25.69361 36090 ft 431 kts 320°
2026-05-06 16:04 35.23753 25.64811 36108 ft 432 kts 320°
2026-05-06 16:05 35.28473 25.60265 36101 ft 432 kts 320°
2026-05-06 16:05 35.33203 25.55705 36100 ft 433 kts 320°
2026-05-06 16:06 35.37931 25.51139 36090 ft 433 kts 320°
2026-05-06 16:06 35.42626 25.46598 36090 ft 433 kts 320°
2026-05-06 16:07 35.47352 25.42019 36105 ft 433 kts 320°
2026-05-06 16:07 35.52074 25.37438 36103 ft 433 kts 320°
2026-05-06 16:08 35.56797 25.32847 36105 ft 433 kts 320°
2026-05-06 16:08 35.61485 25.28284 36107 ft 433 kts 320°
2026-05-06 16:09 35.66208 25.23679 36106 ft 433 kts 320°
2026-05-06 16:09 35.70930 25.19069 36105 ft 433 kts 320°
2026-05-06 16:10 35.75650 25.14453 36101 ft 433 kts 320°
2026-05-06 16:10 35.80334 25.09866 36083 ft 433 kts 320°
2026-05-06 16:11 35.85047 25.05243 36089 ft 433 kts 320°
2026-05-06 16:11 35.89762 25.00610 36090 ft 433 kts 320°
2026-05-06 16:12 35.94476 24.95971 36105 ft 434 kts 320°
2026-05-06 16:12 35.99155 24.91360 36095 ft 433 kts 320°
2026-05-06 16:13 36.03858 24.86718 36095 ft 433 kts 320°
2026-05-06 16:13 36.08559 24.82071 36092 ft 433 kts 320°
2026-05-06 16:14 36.13258 24.77415 36094 ft 433 kts 320°
2026-05-06 16:14 36.17953 24.72754 36092 ft 433 kts 320°
2026-05-06 16:15 36.22616 24.68118 36091 ft 433 kts 320°
2026-05-06 16:15 36.27307 24.63449 36091 ft 432 kts 320°
2026-05-06 16:16 36.31992 24.58777 36089 ft 432 kts 320°
2026-05-06 16:16 36.36671 24.54104 36087 ft 432 kts 320°
2026-05-06 16:17 36.41316 24.49458 36084 ft 432 kts 320°
2026-05-06 16:17 36.45993 24.44773 36081 ft 432 kts 320°
2026-05-06 16:18 36.50669 24.40083 36084 ft 432 kts 320°
2026-05-06 16:18 36.55312 24.35416 36084 ft 432 kts 320°
2026-05-06 16:19 36.59976 24.30718 36083 ft 431 kts 319°
2026-05-06 16:19 36.64637 24.26019 36082 ft 431 kts 319°
2026-05-06 16:20 36.69298 24.21311 36076 ft 431 kts 319°
2026-05-06 16:20 36.73953 24.16602 36076 ft 431 kts 319°
2026-05-06 16:21 36.78579 24.11916 36074 ft 431 kts 319°
2026-05-06 16:21 36.83232 24.07194 36081 ft 431 kts 319°
2026-05-06 16:22 36.87883 24.02466 36071 ft 431 kts 319°
2026-05-06 16:22 36.92535 23.97731 36071 ft 431 kts 319°
2026-05-06 16:23 36.97155 23.93025 36067 ft 431 kts 319°
2026-05-06 16:23 37.01809 23.88278 36067 ft 431 kts 319°
2026-05-06 16:24 37.06455 23.83531 36066 ft 431 kts 319°
2026-05-06 16:24 37.11103 23.78774 36076 ft 431 kts 319°
2026-05-06 16:25 37.15745 23.74015 36058 ft 431 kts 319°
2026-05-06 16:25 37.20360 23.69277 36061 ft 432 kts 319°
2026-05-06 16:26 37.25004 23.64500 36062 ft 432 kts 319°
2026-05-06 16:26 37.29650 23.59714 36062 ft 432 kts 319°
2026-05-06 16:27 37.34291 23.54925 36059 ft 432 kts 319°
2026-05-06 16:27 37.38903 23.50157 36070 ft 432 kts 319°
2026-05-06 16:28 37.43535 23.45362 36060 ft 431 kts 319°
2026-05-06 16:28 37.48166 23.40560 36062 ft 432 kts 319°
2026-05-06 16:29 37.52802 23.35744 36062 ft 432 kts 319°
2026-05-06 16:29 37.57404 23.30955 36062 ft 432 kts 319°
2026-05-06 16:30 37.61286 23.26910 36065 ft 432 kts 319°
2026-05-06 16:30 37.66667 23.21294 36064 ft 432 kts 319°
2026-05-06 16:31 37.71295 23.16454 36062 ft 432 kts 318°
2026-05-06 16:31 37.75923 23.11606 36061 ft 432 kts 318°
2026-05-06 16:32 37.80518 23.06785 36058 ft 433 kts 318°
2026-05-06 16:32 37.85149 23.01917 36060 ft 433 kts 318°
2026-05-06 16:33 37.89777 22.97045 36058 ft 433 kts 318°
2026-05-06 16:34 37.96684 22.89681 36060 ft 432 kts 317°
2026-05-06 16:34 38.01167 22.84673 36057 ft 433 kts 316°